Dewpoint
-8 -4 -1 -1 1 -2 -6 -6 -9 -7 -3 -4 -2 -5 -4 -2 -1 5 9 10 10 11 1 3 2 2 8 9 9 9 9 8 7 4 -0 1 -1 -3 -1 4 8 7 6 7 1 2 3 3 5
-3 -4 -2 -3 -2 -5 -7 -8 -8 -4 -1 -2 -4 -4 -5 1 1 7 9 10 10 11 3 3 3 -0 4 7 7 8 8 8 2 -3 -3 -2 -5 -5 -5 -3 2 3 1 2 1 3 3 4 4
-8 -3 -4 -5 -7 -6 -6 -8 -8 -1 0 0 -0 0 -1 1 3 5 9 11 11 11 10 4 4 1 1 2 3 5 5 3 -3 -5 -5 -5 -6 -6 -5 -5 -5 -4 -1 0 2 4 4 5 4
-5 -5 -7 -6 -8 -6 -8 -8 -8 -3 0 -1 1 2 4 5 4 7 10 11 11 11 11 6 5 3 1 -0 -1 -1 -2 -3 -4 -5 -5 -5 -5 -5 -4 -4 -3 -1 1 1 2 4 4 6 7
-7 -9 -9 -11 -8 -8 -8 -9 -8 -8 -6 -2 0 3 5 8 8 8 10 11 12 12 11 7 5 5 3 3 2 1 -0 -3 -5 -5 -5 -5 -5 -4 -3 -3 -0 2 2 2 3 4 5 6 8
-8 -12 -10 -12 -10 -10 -10 -9 -9 -9 -6 -0 -1 1 6 9 7 9 10 11 12 13 13 7 6 6 6 4 4 5 4 1 -3 -4 -5 -4 -4 -4 -3 -1 1 3 3 3 3 6 7 8 8
-9 -11 -13 -14 -11 -10 -10 -9 -9 -9 -8 -3 0 -1 7 8 9 9 11 12 13 13 14 7 6 6 7 5 5 6 6 5 1 -2 -4 -4 -3 -3 -2 -1 2 3 4 4 4 8 9 9 9
-9 -11 -12 -14 -14 -12 -10 -10 -9 -9 -8 -4 0 -4 1 8 10 9 11 13 14 14 14 7 6 7 7 7 6 6 7 7 5 2 -2 -2 -2 -2 -2 -1 1 2 2 2 4 6 8 9 9
-12 -11 -14 -15 -15 -13 -11 -11 -9 -9 -9 -9 -5 -4 7 10 11 10 11 13 14 15 14 10 6 7 7 7 7 6 6 7 7 5 2 -1 -1 -1 -1 -1 -0 1 2 2 2 3 3 4 4
-12 -13 -14 -13 -14 -14 -13 -12 -10 -10 -10 -9 -9 -2 3 6 8 8 8 10 13 14 15 11 8 10 8 13 9 7 6 7 8 7 6 2 5 0 1 1 0 1 2 2 3 3 3 4 8
-11 -12 -12 -14 -13 -13 -14 -12 -12 -11 -10 -11 -10 -8 -1 1 3 5 5 5 8 11 14 15 10 13 13 13 14 10 10 8 7 8 8 7 11 9 10 9 2 2 2 3 3 4 4 6 11
-9 -11 -12 -14 -12 -13 -14 -14 -12 -11 -11 -11 -10 -9 -9 -3 0 1 1 0 2 7 12 15 15 15 15 15 14 14 13 13 12 12 10 11 12 12 11 12 8 3 5 8 8 10 7 11 12
-9 -12 -12 -12 -11 -11 -12 -12 -11 -12 -13 -12 -11 -10 -10 -9 -9 -5 -3 -3 -2 3 9 14 15 15 15 14 14 14 13 14 13 14 14 13 13 13 12 11 12 12 12 11 11 11 12 12 13
-11 -11 -12 -11 -11 -11 -12 -13 -13 -13 -15 -15 -14 -12 -11 -11 -11 -11 -10 -7 -1 2 7 13 14 15 14 12 13 14 14 13 14 14 14 13 14 14 14 12 12 12 12 12 12 12 12 13 12
-8 -7 -12 -13 -12 -12 -14 -12 -12 -15 -16 -16 -13 -13 -12 -9 -8 -9 -6 -3 -1 2 6 11 14 14 14 12 12 14 14 14 14 13 13 14 14 14 14 13 13 13 12 12 12 12 12 12 12
-9 -10 -10 -15 -15 -14 -12 -14 -17 -14 -15 -14 -14 -11 -7 -5 -5 -4 -3 -2 -0 2 4 10 12 14 15 15 15 15 15 15 14 14 14 14 14 14 14 14 13 13 13 13 12 12 12 12 12
-9 -11 -11 -14 -14 -14 -10 -13 -17 -13 -14 -12 -12 -10 -10 -7 -5 -4 -2 -1 -1 -1 1 7 11 14 15 15 16 16 15 15 14 14 14 14 14 15 14 14 13 13 13 14 13 12 12 12 12
-11 -10 -11 -14 -14 -13 -14 -12 -14 -14 -14 -14 -12 -11 -10 -9 -8 -8 -7 -6 -4 -1 -1 1 7 13 15 16 16 16 15 15 15 15 14 14 14 14 15 14 14 14 14 14 13 13 13 12 12
-13 -13 -13 -13 -15 -11 -10 -11 -14 -16 -16 -15 -13 -12 -13 -12 -10 -9 -13 -11 -1 1 2 2 5 11 15 16 16 15 15 15 15 15 15 15 14 13 13 14 13 14 14 14 14 14 13 13 13
-9 -10 -10 -14 -16 -13 -12 -12 -14 -16 -16 -14 -14 -13 -13 -13 -14 -13 -11 -6 1 4 7 7 6 7 14 15 15 15 15 15 15 15 15 15 15 14 12 14 14 13 13 14 13 13 13 13 13
-8 -8 -9 -12 -13 -12 -12 -12 -15 -16 -16 -15 -14 -13 -13 -14 -14 -13 -10 -2 3 8 10 10 10 9 12 14 15 15 15 15 15 15 15 15 14 12 13 13 13 12 12 15 13 13 13 13 13
-6 -10 -11 -11 -10 -10 -13 -9 -12 -16 -13 -8 -8 -10 -11 -11 -10 -8 -3 1 8 10 12 11 10 10 11 14 14 15 14 15 14 13 13 13 12 13 13 12 11 11 11 11 14 13 14 14 13
-7 -11 -11 -11 -8 -9 -12 -11 -12 -14 -15 -15 -12 -9 -7 -7 -5 -4 -1 6 10 12 7 11 9 10 13 14 15 15 14 14 13 12 12 13 13 13 12 10 13 13 13 12 13 14 13 13 14
-9 -9 -7 -8 -8 -5 -8 -9 -11 -14 -13 -12 -12 -10 -8 -6 -4 -1 4 10 11 12 4 10 13 14 14 14 14 14 15 15 14 13 13 12 13 13 10 11 13 14 12 12 12 12 12 13 13
-8 -4 -2 -3 -2 -3 -11 -11 -9 -12 -11 -11 -10 -11 -9 -4 -1 2 7 10 11 11 5 6 8 13 14 13 14 16 15 15 12 13 13 13 14 13 11 12 13 13 13 12 12 12 11 12 13
-6 -5 -4 -2 -3 -6 -11 -8 -14 -14 -14 -10 -9 -8 -7 -1 2 4 5 8 12 13 9 11 13 14 15 15 14 15 15 15 14 14 14 14 14 13 12 13 13 12 12 12 12 12 11 11 10
-6 -2 -6 -6 -7 -6 -6 -11 -10 -8 -6 -7 -8 -7 -5 -3 1 4 6 8 13 13 11 13 14 15 15 13 14 14 15 14 14 14 14 14 14 13 13 12 12 12 11 9 8 10 10 10 10
-8 -6 -1 -2 1 1 -6 -10 -12 -13 -4 -5 -5 -5 -5 -3 -1 3 6 7 13 13 13 13 13 14 14 14 14 14 14 14 14 14 13 13 12 12 11 10 8 6 5 4 4 5 6 7 9
-7 -5 -4 -5 -2 -2 -3 -9 -13 -13 -7 -4 -6 -5 -3 -2 2 3 6 7 11 12 13 13 14 13 14 14 14 14 14 13 13 13 12 11 9 6 4 3 2 1 1 1 1 2 4 6 8
-8 -6 -5 2 -0 -2 -1 -2 -10 -4 -5 -6 -5 -4 -3 1 3 4 6 7 9 12 12 13 13 13 13 13 12 11 10 9 8 8 6 5 3 2 2 3 2 2 1 1 1 2 3 4 5
Wind_Speed
5 8 8 6 7 9 3 7 5 8 10 7 6 13 16 18 14 7 9 5 15 18 19 18 16 17 19 18 17 16 15 14 12 11 11 12 12 12 13 13 13 12 12 11 12 14 14 15 16
2 8 7 9 8 13 9 7 5 10 12 11 9 6 14 13 15 13 9 12 16 17 18 19 18 17 17 17 16 15 14 14 12 12 12 12 12 12 12 12 12 11 11 12 13 14 15 15 16
5 6 10 5 12 10 10 5 8 11 9 5 5 4 4 8 7 8 9 13 17 17 18 19 18 17 17 16 16 15 15 14 13 13 13 12 12 12 11 12 12 11 11 12 14 14 15 16 16
4 7 9 9 13 9 10 7 8 9 7 3 2 10 7 7 6 6 12 15 17 17 18 17 19 18 17 16 17 16 16 14 13 13 13 12 12 12 11 12 12 12 12 13 13 13 14 14 14
7 11 11 14 4 3 3 2 4 8 7 6 6 9 10 6 9 11 13 15 16 17 17 17 20 19 18 17 17 16 15 14 14 14 13 13 13 12 12 12 12 12 13 13 13 13 12 12 10
11 8 12 12 10 4 4 3 6 6 7 5 6 7 10 10 10 13 13 14 14 16 18 17 22 21 20 19 17 16 15 14 14 14 14 13 13 13 13 12 12 12 12 12 12 12 12 11 8
13 9 16 10 7 7 5 1 8 7 7 7 1 6 11 11 10 13 13 13 14 16 17 16 23 23 22 21 19 18 16 15 14 14 14 14 14 14 13 12 13 13 12 11 11 11 11 9 8
10 7 19 10 7 8 7 3 2 8 6 2 3 4 14 16 13 13 13 13 14 16 17 16 23 25 25 24 22 20 19 17 15 15 15 15 14 14 14 14 13 13 12 12 11 11 10 9 8
8 9 12 14 8 4 8 8 3 4 4 7 5 2 6 12 13 13 13 13 14 17 18 18 22 26 28 27 26 23 21 20 19 18 17 16 16 16 15 15 14 14 14 13 13 12 11 10 8
12 11 13 9 8 2 4 5 5 6 12 10 8 4 7 10 12 13 14 14 15 18 20 20 21 23 27 23 26 27 26 25 23 22 21 20 17 18 15 17 16 16 16 15 14 14 13 11 7
14 15 6 2 2 7 7 5 6 10 11 11 11 10 11 10 12 14 14 15 17 17 19 22 23 23 24 23 22 29 27 28 27 25 24 21 17 17 17 19 20 20 19 18 17 15 14 11 7
14 15 7 5 4 9 9 11 6 12 17 14 7 10 11 13 15 17 17 17 17 19 21 23 23 24 25 22 23 22 25 26 26 26 27 23 20 19 19 17 19 21 20 16 15 13 13 11 13
12 18 10 13 10 12 12 15 13 19 18 18 16 17 18 19 20 20 20 19 18 19 22 24 24 24 24 28 24 24 26 26 25 24 26 25 22 22 21 19 16 16 15 16 15 14 13 14 13
7 13 12 15 14 15 16 16 15 22 18 21 19 19 21 21 21 22 21 19 19 19 22 23 25 27 25 26 30 28 27 26 27 26 26 29 24 23 20 20 18 18 18 16 17 16 15 14 13
11 13 16 20 18 15 13 17 20 27 21 18 19 20 19 18 17 18 16 14 18 19 21 24 25 27 28 28 31 27 24 28 28 28 28 31 28 26 22 20 20 19 18 22 17 17 16 14 13
13 16 15 19 21 17 9 15 10 15 13 14 15 15 15 15 16 16 15 14 13 16 22 23 24 27 29 27 28 26 25 26 27 28 28 32 31 27 27 22 21 19 20 17 18 17 16 14 13
16 14 19 16 12 10 15 12 8 3 10 11 14 15 19 19 20 20 18 18 17 16 17 22 28 29 31 30 26 26 25 26 25 25 27 28 31 31 30 24 22 22 21 19 18 17 17 15 14
18 18 17 18 13 11 17 18 16 13 18 18 18 20 23 24 23 21 21 21 21 19 19 21 25 30 29 28 28 24 24 25 24 25 25 26 28 32 33 26 24 25 21 20 18 19 16 16 16
19 12 17 14 7 6 14 19 19 21 23 24 23 25 27 28 26 24 23 22 19 21 19 20 23 29 30 31 32 29 29 28 23 22 23 25 29 25 32 29 25 27 25 24 18 19 20 20 16
21 21 20 15 18 13 16 21 22 21 19 24 26 27 28 28 26 23 22 21 20 19 18 19 22 26 30 29 31 30 27 26 22 22 23 25 30 27 25 30 29 28 27 22 22 23 21 22 24
21 22 19 18 13 13 18 25 26 26 33 26 32 33 32 30 25 21 19 19 18 18 19 19 23 26 29 29 28 29 29 29 30 28 29 32 30 23 22 25 27 29 27 24 23 23 23 25 25
22 19 18 19 16 15 8 16 18 10 12 15 22 24 22 20 19 17 15 16 15 14 15 16 18 24 29 29 29 38 42 40 38 35 35 31 26 24 21 23 23 23 23 23 22 20 20 22 23
22 17 18 16 17 19 22 13 19 18 12 13 15 19 19 17 16 16 14 11 10 10 12 9 12 18 24 27 32 36 27 25 25 33 32 30 26 24 23 23 21 21 22 19 18 19 20 21 23
17 15 13 15 14 18 20 18 20 17 16 15 14 16 14 14 12 12 9 9 8 9 11 9 11 17 21 30 34 29 21 18 26 24 26 28 28 26 24 23 22 21 19 19 19 19 19 21 22
22 14 10 12 13 20 14 16 20 3 3 8 13 12 10 10 11 12 11 8 10 10 12 10 15 19 24 28 26 26 26 28 21 22 26 27 27 27 26 24 23 21 20 19 19 20 20 21 22
28 23 13 20 15 20 21 24 19 13 11 17 15 11 12 8 8 10 11 11 10 11 14 15 15 15 16 17 18 21 21 20 20 21 21 21 22 23 24 22 18 16 16 16 17 20 22 22 23
24 25 31 22 22 13 14 17 13 10 10 13 17 19 17 13 10 11 11 12 11 11 15 18 21 22 22 23 22 21 22 22 20 19 19 20 19 17 16 15 15 15 14 15 18 21 22 23 24
28 22 19 15 16 22 19 23 17 10 16 17 15 20 19 16 16 12 12 12 11 12 16 20 19 22 22 22 23 22 22 20 18 18 17 18 17 15 13 11 10 10 11 11 12 15 17 19 22
20 22 22 19 18 15 18 16 16 13 9 15 14 18 19 17 13 12 13 14 13 15 18 20 21 23 25 25 24 22 21 20 19 19 16 14 12 9 9 8 7 5 6 9 12 14 17 19 20
27 28 27 14 30 17 19 21 7 2 4 8 13 16 13 11 11 12 14 15 15 14 20 23 23 23 23 23 21 19 18 17 15 15 14 12 11 10 6 3 3 5 9 12 15 16 18 20 22
Wind_Direction
326 341 310 280 245 233 95 104 73 118 102 79 68 47 58 44 23 45 130 147 151 163 167 164 158 154 158 165 168 171 170 164 158 153 149 144 143 140 139 138 135 135 133 130 122 123 123 120 114
304 297 287 277 252 229 104 113 159 81 95 102 107 131 81 75 77 105 127 139 151 163 170 169 163 160 160 168 174 176 173 168 164 158 155 150 147 146 143 141 144 145 141 137 131 129 124 118 113
321 278 271 241 250 346 105 113 100 111 135 150 111 17 95 89 88 108 129 149 155 163 171 176 169 164 163 169 176 178 174 174 169 161 158 157 150 147 147 146 148 148 144 140 137 135 130 123 117
289 233 245 245 242 49 65 105 111 148 165 164 265 109 95 81 108 122 139 146 156 165 169 182 176 171 169 171 174 174 174 173 171 164 163 162 157 152 151 149 147 149 147 146 144 141 135 128 121
269 260 259 234 141 98 108 57 182 185 149 182 245 118 112 123 119 131 138 151 159 167 172 190 184 179 177 177 177 175 174 174 174 172 169 169 165 159 157 154 151 152 152 152 153 148 141 134 126
255 253 254 233 161 149 128 134 210 232 174 167 228 126 123 149 139 148 145 157 165 171 177 193 189 187 186 184 186 183 180 180 179 178 177 175 173 169 165 162 159 159 158 157 159 159 155 150 145
251 269 260 298 99 187 114 212 202 206 199 135 12 213 119 166 160 155 156 161 171 178 180 195 194 193 193 192 194 192 190 189 185 184 185 183 183 180 172 171 168 169 167 168 170 174 174 172 169
275 281 266 249 200 217 127 159 216 236 135 108 285 229 185 156 161 160 167 169 176 184 189 200 198 199 197 198 199 200 200 196 193 191 191 191 192 190 183 181 182 181 182 180 184 188 194 198 202
256 255 248 237 219 162 149 203 167 258 234 199 200 314 104 146 163 171 177 181 185 190 197 202 202 204 202 202 203 203 204 204 200 198 197 197 199 197 196 193 193 196 196 194 196 200 205 211 218
235 236 253 17 34 303 167 248 108 247 216 216 207 194 169 169 180 194 200 203 204 198 199 204 204 204 204 197 208 206 207 206 206 203 201 201 200 202 201 207 200 206 207 208 207 209 210 216 230
230 252 348 139 303 269 285 222 218 249 257 252 222 213 200 209 211 218 228 231 216 218 207 205 207 202 200 193 204 206 207 208 208 210 208 201 200 199 195 217 208 210 210 215 217 218 219 220 204
245 245 275 268 227 259 253 272 263 250 256 278 274 248 244 224 235 234 243 245 236 213 214 207 205 201 202 195 202 206 203 205 208 208 213 198 201 205 200 210 213 212 216 209 227 226 222 218 230
234 263 227 254 242 258 268 262 261 264 259 256 251 248 251 248 248 248 250 251 245 223 213 211 202 205 207 194 205 205 204 209 207 207 213 203 208 211 208 208 209 208 212 207 215 213 228 226 229
296 259 259 249 247 251 256 261 253 256 257 247 248 252 251 253 253 254 250 249 239 226 215 213 208 212 208 208 197 206 207 212 205 211 214 218 209 215 214 209 210 212 209 213 212 215 223 232 231
258 250 250 242 238 242 255 261 246 251 255 254 241 248 252 252 250 245 246 243 233 224 217 215 213 211 216 216 204 206 209 200 210 206 215 225 209 216 213 214 214 217 214 213 213 218 220 228 235
237 232 255 244 218 217 225 259 265 212 234 242 249 239 236 242 237 238 237 239 233 229 224 216 217 212 217 213 210 204 205 207 210 207 214 219 216 210 221 216 220 218 220 222 213 219 221 229 233
223 246 227 236 197 214 212 256 248 168 239 253 256 250 249 244 240 240 239 241 241 237 230 224 219 216 218 212 209 207 205 208 205 209 209 219 220 209 220 215 221 218 218 221 217 219 222 230 233
228 222 238 254 170 213 245 241 260 230 247 255 249 248 250 249 243 247 248 249 247 243 242 233 225 220 215 211 207 211 207 207 206 209 207 212 227 215 215 214 219 224 221 220 225 217 226 230 237
260 274 278 233 193 200 261 269 266 265 256 252 249 251 249 250 249 247 254 249 241 245 242 233 221 221 210 209 206 209 204 206 208 208 205 207 231 229 215 212 221 224 223 217 225 221 225 230 226
249 259 249 258 269 235 264 268 266 261 255 253 255 250 249 251 252 249 241 235 241 244 246 239 232 219 213 212 210 210 207 207 206 205 206 203 221 230 219 223 220 222 225 225 229 232 228 233 237
236 245 244 255 258 225 269 271 263 252 244 251 251 253 253 252 251 244 228 229 239 247 249 245 234 227 217 208 205 205 196 199 195 200 203 208 216 223 224 222 230 227 230 224 235 239 241 247 250
239 230 251 263 269 262 249 279 280 268 208 220 248 248 248 243 238 238 228 225 237 243 248 252 236 220 210 204 202 211 209 206 207 210 213 216 216 221 225 223 223 220 226 228 233 244 244 254 257
245 249 255 257 262 268 255 257 270 258 257 251 239 237 235 232 226 222 221 231 234 244 250 248 226 201 200 200 209 209 205 213 219 220 221 221 221 219 215 210 211 217 227 231 234 245 247 249 255
231 233 250 246 255 255 246 248 263 253 233 227 242 228 228 228 220 213 196 209 209 239 243 205 195 200 195 197 213 204 196 197 209 208 210 213 210 212 210 207 212 222 229 231 236 244 247 251 259
225 204 217 229 227 249 244 233 235 200 258 238 219 224 220 218 204 204 204 219 211 227 223 203 189 198 201 204 199 188 196 205 204 200 202 202 205 205 207 208 215 224 231 238 241 243 248 251 255
211 205 220 222 236 254 230 243 250 267 236 202 234 251 247 184 199 214 225 220 210 208 205 189 183 181 186 185 186 184 187 190 191 194 196 198 198 201 205 211 215 223 233 244 250 256 262 265 264
196 216 226 255 274 279 265 250 241 213 203 209 224 225 225 237 220 232 226 215 201 195 196 191 186 178 183 183 180 177 179 187 185 184 186 189 191 193 194 204 217 229 241 252 257 259 264 267 268
221 211 222 230 247 244 244 243 255 234 205 211 222 230 230 229 231 228 223 210 203 197 195 197 193 186 183 184 185 181 179 179 183 182 183 184 189 196 205 209 223 237 245 257 266 273 273 273 271
212 225 215 224 230 240 257 255 254 275 227 187 217 217 220 217 218 220 217 208 205 209 201 194 187 183 178 179 178 177 178 181 181 184 186 186 181 179 187 203 217 246 270 279 286 289 286 284 280
215 216 213 215 224 231 255 258 273 14 283 215 209 203 201 204 205 211 210 203 202 202 196 192 183 183 183 183 176 176 173 167 162 158 159 160 171 175 176 190 258 283 293 298 297 295 295 292 288
Height
1513 1512 1515 1514 1508 1484 1477 1482 1477 1483 1485 1492 1493 1488 1494 1497 1496 1510 1516 1517 1518 1519 1519 1522 1525 1527 1529 1533 1535 1537 1539 1541 1543 1545 1546 1548 1549 1550 1551 1553 1553 1554 1555 1556 1557 1557 1558 1559 1559
1514 1516 1515 1507 1497 1479 1478 1478 1482 1483 1491 1495 1496 1494 1496 1503 1506 1512 1515 1517 1518 1519 1519 1523 1525 1528 1531 1534 1536 1540 1542 1543 1545 1546 1548 1549 1551 1552 1553 1554 1555 1556 1557 1558 1559 1560 1561 1562 1563
1512 1516 1511 1493 1481 1478 1477 1478 1483 1489 1494 1494 1496 1496 1499 1507 1510 1513 1515 1516 1519 1520 1520 1523 1526 1529 1531 1534 1537 1541 1543 1545 1546 1548 1549 1551 1552 1553 1555 1556 1557 1558 1559 1560 1561 1562 1563 1564 1565
1517 1514 1508 1497 1479 1481 1478 1482 1487 1491 1494 1496 1493 1496 1506 1510 1512 1514 1514 1517 1519 1521 1523 1523 1527 1530 1532 1535 1538 1541 1543 1545 1548 1550 1551 1552 1553 1554 1555 1556 1558 1559 1561 1562 1564 1565 1566 1567 1568
1515 1508 1495 1487 1479 1485 1486 1490 1491 1489 1491 1494 1495 1496 1504 1511 1513 1515 1515 1518 1520 1522 1524 1524 1527 1530 1533 1536 1540 1541 1544 1546 1547 1549 1551 1552 1553 1555 1556 1557 1559 1561 1562 1564 1565 1566 1567 1568 1569
1510 1501 1492 1483 1478 1486 1488 1493 1493 1491 1494 1495 1496 1498 1505 1512 1514 1516 1517 1519 1520 1521 1523 1523 1526 1530 1533 1536 1540 1542 1544 1546 1548 1550 1551 1552 1554 1555 1557 1559 1560 1562 1564 1565 1567 1568 1569 1569 1571
1508 1491 1485 1473 1477 1488 1487 1494 1492 1491 1491 1493 1498 1496 1504 1512 1514 1515 1517 1519 1520 1521 1522 1522 1526 1529 1533 1536 1539 1542 1545 1546 1548 1551 1552 1554 1554 1556 1558 1560 1561 1562 1564 1566 1568 1569 1570 1571 1571
1508 1498 1487 1480 1481 1484 1492 1496 1497 1495 1491 1500 1500 1496 1498 1507 1513 1515 1517 1517 1518 1519 1520 1520 1523 1527 1531 1534 1538 1541 1544 1546 1548 1550 1552 1554 1555 1557 1558 1559 1561 1562 1564 1566 1568 1569 1570 1571 1572
1508 1500 1488 1479 1481 1482 1494 1493 1499 1499 1497 1500 1502 1501 1505 1508 1511 1514 1516 1517 1517 1517 1517 1518 1521 1524 1528 1532 1536 1539 1543 1546 1547 1549 1551 1553 1554 1555 1557 1559 1560 1562 1564 1565 1567 1568 1570 1570 1571
1505 1494 1482 1481 1482 1487 1492 1495 1496 1498 1495 1498 1502 1505 1507 1509 1511 1513 1514 1515 1517 1516 1515 1516 1518 1521 1525 1531 1533 1537 1540 1543 1545 1547 1549 1551 1552 1554 1556 1557 1559 1561 1563 1564 1565 1567 1569 1570 1572
1500 1496 1483 1488 1494 1496 1492 1495 1496 1497 1493 1494 1495 1500 1505 1507 1508 1510 1510 1510 1512 1516 1516 1514 1515 1518 1522 1528 1531 1533 1535 1538 1542 1545 1547 1549 1553 1553 1555 1555 1557 1558 1560 1562 1563 1565 1567 1569 1573
1500 1496 1493 1491 1498 1498 1495 1494 1494 1496 1494 1494 1496 1499 1501 1502 1504 1505 1505 1505 1507 1509 1514 1513 1514 1516 1519 1525 1528 1530 1533 1534 1537 1540 1543 1547 1551 1552 1553 1555 1553 1556 1557 1561 1563 1565 1566 1569 1570
1500 1494 1496 1497 1499 1498 1497 1496 1496 1494 1494 1494 1496 1497 1498 1499 1499 1499 1500 1501 1502 1504 1509 1511 1513 1513 1515 1519 1524 1527 1529 1531 1535 1538 1540 1543 1548 1549 1550 1553 1554 1556 1558 1559 1561 1564 1565 1567 1567
1495 1495 1493 1495 1495 1496 1495 1493 1492 1490 1490 1489 1490 1492 1493 1493 1494 1494 1495 1496 1498 1500 1504 1507 1508 1509 1511 1513 1519 1521 1525 1528 1531 1535 1537 1539 1544 1547 1549 1551 1553 1554 1556 1557 1558 1560 1563 1564 1565
1500 1500 1493 1490 1492 1491 1492 1490 1486 1485 1485 1484 1487 1487 1488 1489 1490 1490 1491 1492 1494 1496 1499 1502 1504 1507 1506 1507 1512 1517 1521 1524 1526 1530 1533 1533 1539 1544 1546 1548 1550 1552 1554 1553 1556 1558 1559 1561 1563
1497 1493 1492 1476 1479 1484 1492 1485 1468 1475 1479 1480 1482 1482 1483 1485 1486 1486 1488 1489 1491 1492 1495 1497 1499 1500 1501 1504 1506 1511 1515 1517 1521 1524 1528 1529 1533 1539 1541 1545 1546 1549 1549 1550 1552 1554 1556 1558 1560
1488 1489 1480 1473 1477 1479 1487 1477 1468 1475 1479 1480 1480 1481 1479 1479 1480 1481 1483 1485 1487 1488 1490 1492 1492 1494 1495 1499 1503 1506 1509 1512 1516 1520 1523 1525 1528 1533 1536 1541 1543 1544 1546 1547 1547 1551 1553 1554 1557
1481 1479 1474 1472 1468 1479 1477 1476 1472 1473 1474 1475 1477 1477 1475 1473 1474 1476 1478 1480 1481 1484 1486 1487 1488 1489 1492 1494 1498 1501 1504 1507 1510 1513 1517 1520 1521 1525 1530 1536 1539 1540 1542 1544 1543 1546 1549 1551 1553
1470 1466 1467 1461 1460 1476 1478 1473 1468 1466 1465 1466 1468 1470 1469 1467 1469 1471 1472 1473 1474 1478 1478 1480 1483 1482 1484 1487 1490 1494 1497 1501 1505 1508 1513 1517 1516 1518 1522 1529 1532 1534 1536 1538 1540 1542 1544 1546 1549
1476 1475 1475 1467 1464 1468 1470 1467 1461 1458 1456 1458 1460 1460 1461 1460 1461 1463 1465 1467 1469 1470 1472 1474 1476 1478 1478 1481 1485 1490 1493 1497 1501 1505 1508 1511 1511 1513 1516 1522 1526 1529 1532 1535 1536 1537 1539 1540 1542
1473 1475 1473 1473 1464 1466 1466 1462 1453 1445 1445 1450 1451 1452 1453 1452 1453 1455 1459 1463 1465 1466 1465 1465 1468 1471 1473 1476 1480 1484 1488 1490 1493 1497 1500 1502 1504 1508 1512 1515 1519 1522 1526 1529 1532 1533 1533 1534 1537
1473 1468 1472 1473 1476 1477 1455 1468 1444 1430 1437 1445 1445 1443 1443 1445 1447 1451 1455 1459 1461 1460 1459 1459 1459 1461 1466 1470 1473 1471 1475 1478 1484 1488 1491 1495 1499 1503 1507 1512 1516 1519 1521 1524 1527 1528 1529 1530 1531
1466 1465 1466 1466 1472 1469 1461 1465 1440 1426 1431 1432 1433 1436 1437 1439 1442 1446 1451 1456 1458 1456 1453 1454 1456 1458 1461 1464 1465 1467 1472 1476 1479 1483 1487 1491 1495 1499 1502 1506 1511 1514 1517 1520 1523 1525 1525 1526 1527
1464 1468 1472 1470 1468 1469 1456 1456 1435 1424 1420 1427 1429 1429 1432 1435 1438 1442 1447 1452 1453 1450 1450 1452 1456 1458 1459 1458 1459 1464 1471 1474 1473 1477 1481 1485 1490 1493 1496 1501 1507 1510 1513 1515 1516 1518 1520 1521 1522
1460 1472 1479 1479 1472 1449 1438 1439 1425 1414 1417 1418 1425 1426 1428 1432 1437 1441 1446 1449 1449 1446 1445 1447 1449 1455 1456 1455 1456 1461 1465 1467 1469 1473 1476 1480 1485 1489 1493 1496 1500 1503 1506 1508 1510 1512 1512 1513 1514
1450 1459 1461 1473 1461 1437 1423 1432 1413 1405 1410 1420 1424 1428 1428 1432 1437 1440 1443 1446 1447 1444 1445 1446 1447 1451 1456 1457 1458 1459 1462 1465 1467 1471 1475 1479 1482 1486 1489 1493 1496 1499 1502 1504 1506 1507 1507 1507 1507
1441 1453 1430 1450 1431 1441 1427 1401 1402 1409 1415 1419 1421 1425 1428 1430 1434 1438 1441 1444 1445 1444 1444 1447 1446 1448 1453 1455 1458 1458 1460 1463 1466 1469 1473 1477 1480 1484 1486 1490 1493 1495 1497 1499 1499 1500 1501 1501 1502
1426 1434 1455 1443 1464 1462 1426 1415 1407 1400 1410 1413 1417 1420 1423 1428 1431 1435 1439 1442 1443 1443 1444 1444 1447 1447 1451 1454 1457 1458 1459 1462 1465 1468 1472 1476 1480 1482 1487 1489 1490 1491 1492 1493 1495 1496 1496 1497 1497
1429 1428 1431 1431 1436 1437 1429 1413 1390 1391 1393 1404 1409 1414 1419 1422 1427 1431 1436 1439 1442 1441 1441 1441 1444 1447 1448 1450 1453 1457 1459 1462 1464 1467 1471 1475 1477 1482 1482 1485 1487 1488 1489 1489 1490 1490 1491 1492 1492
1416 1421 1416 1427 1424 1423 1427 1410 1393 1400 1401 1402 1405 1409 1413 1419 1424 1428 1432 1436 1439 1439 1440 1439 1439 1445 1448 1451 1452 1455 1458 1460 1463 1466 1469 1472 1475 1477 1481 1483 1486 1486 1487 1487 1487 1488 1489 1488 1488